This is the latest recevied weather packets stored in our database for station/object OK1FCB-1. If no packets are shown the sender has not sent any weather packets the latest 1 day(s).
| Time | Temp. | Humidity | Pressure | Rain* | Wind** | Luminosity | Snow |
|---|---|---|---|---|---|---|---|
| 1778080651 | 16.67° C | 62% | 1008.8 hPa | - | - | - | - |
| 1778079750 | 18.33° C | 58% | 1009.6 hPa | - | - | - | - |
| 1778071692 | 31.67° C | 29% | 1009.9 hPa | - | - | - | - |
| 1778068101 | 28.33° C | 35% | 1010.4 hPa | - | - | - | - |
| 1778067195 | 26.67° C | 35% | 1010.7 hPa | - | - | - | - |
| 1778064506 | 25.56° C | 37% | 1010.8 hPa | - | - | - | - |
| 1778064500 | 25.56° C | 37% | 1010.8 hPa | - | - | - | - |
| 1778063606 | 25° C | 39% | 1010.9 hPa | - | - | - | - |
| 1778061801 | 23.89° C | 40% | 1011.1 hPa | - | - | - | - |
| 1778060002 | 22.78° C | 44% | 1011 hPa | - | - | - | - |
| 1778057310 | 20.56° C | 46% | 1010.9 hPa | - | - | - | - |
| 1778055511 | 22.22° C | 45% | 1010.8 hPa | - | - | - | - |
| 1778035756 | 13.33° C | 72% | 1009.8 hPa | - | - | - | - |
| 1778033065 | 13.89° C | 65% | 1009.1 hPa | - | - | - | - |
| 1778032161 | 13.89° C | 64% | 1009.4 hPa | - | - | - | - |
| 1778029469 | 14.44° C | 63% | 1009.1 hPa | - | - | - | - |
| 1778012412 | 17.78° C | 57% | 1008.2 hPa | - | - | - | - |
| 1778011514 | 17.78° C | 57% | 1008.1 hPa | - | - | - | - |
| 1778002541 | 22.78° C | 35% | 1007.9 hPa | - | - | - | - |
| 1778000747 | 23.89° C | 33% | 1007.8 hPa | - | - | - | - |
* Rain since midnight (hover to see other rain measurements)
** Current wind speed in m/s (hover to see current wind gust speed)